Regional Weather Roundup
Issued by NWS

Home | Current Version | Previous Version | Graphics & Text | Print | Product List | Glossary On
Versions: 1 2 3 4 5 6 7 8 9 10 11 12 13 14 15 16 17 18 19 20 21 22 23 24 25 26 27
000
ASUS45 KBOI 290010
RWRID

IDAHO REGIONAL WEATHER ROUNDUP
NATIONAL WEATHER SERVICE BOISE ID
600 PM MDT WED SEP 28 2016

NOTE: "FAIR" INDICATES FEW OR NO CLOUDS BELOW 12000 FEET
WITH NO SIGNIFICANT WEATHER AND/OR OBSTRUCTIONS TO VISIBILITY

IDZ012-014-290100-
SOUTHWEST IDAHO


CITY           SKY/WX    TMP DP  RH WIND       PRES   REMARKS
BOISE          SUNNY     91  32  12 SE18      29.91F
CALDWELL       SUNNY     90  43  19 S6        29.90S
MOUNTAIN HOME  SUNNY     88  34  14 E16       29.94F
$$

IDZ016-017-290100-
SOUTHCENTRAL IDAHO


CITY           SKY/WX    TMP DP  RH WIND       PRES   REMARKS
BURLEY         SUNNY     80  46  30 NE5       30.05F
JEROME         SUNNY     82  40  22 E9        30.05F
TWIN FALLS     SUNNY     80  44  27 NE6       30.05F
$$

IDZ019>023-290100-
SOUTHEAST IDAHO


CITY           SKY/WX    TMP DP  RH WIND       PRES   REMARKS
IDAHO FALLS    SUNNY     80  42  25 W5        30.13F
POCATELLO      SUNNY     81  38  21 S12       30.11F
REXBURG        SUNNY     78  42  27 W8        30.15S
$$

IDZ006-010-011-018-031-032-290100-
CENTRAL IDAHO MOUNTAINS


CITY           SKY/WX    TMP DP  RH WIND       PRES   REMARKS
MCCALL         SUNNY     80  33  18 S9        30.08S
HAILEY         SUNNY     73  43  33 SE7       30.17S
STANLEY          N/A     76  30  18 W3        30.18F
SALMON         SUNNY     81  39  22 CALM      30.02S
CHALLIS        SUNNY     80  33  18 NW3       30.09F
$$

IDZ002-004-006-007-026-290100-
NORTHERN IDAHO


CITY           SKY/WX    TMP DP  RH WIND       PRES   REMARKS
LEWISTON       SUNNY     83  47  28 W9        29.89S
LOWELL           N/A     73  57  57 CALM      29.85S
COEUR D`ALENE  SUNNY     77  48  35 NE9       29.96S
MULLAN PASS    PTSUNNY   68  41  37 CALM      30.16S
$$




USA.gov is the U.S. government's official web portal to all federal, state and local government web resources and services.